| time (UTC) | temp C | wind direction | speed KPH | gust KPH | rain 1hr cm | rain 24hr cm | rain mn cm | humidity % | barometer mb |
| 20260504100528 | 25 | 2 | 3.2 | 4.8 | 0.00 | 0.10 | 0.00 | 94 | 1008.3 |
| 20260504100459 | 25 | 15 | 3.2 | 4.8 | 0.00 | 0.08 | 0.00 | 94 | 1008.1 |
| 20260504090141 | 25 | 0 | 0.0 | 3.2 | 0.00 | 0.08 | 0.00 | 94 | 1007.6 |
| 20260504081522 | 25 | 77 | 1.6 | 6.4 | 0.00 | 0.10 | 0.00 | 94 | 1008.2 |
| 20260504080856 | 25 | 53 | 6.4 | 6.4 | 0.00 | 0.08 | 0.00 | 94 | 1008.0 |
| 20260504080541 | 25 | 85 | 3.2 | 8.0 | 0.00 | 0.10 | 0.00 | 94 | 1008.2 |
| 20260504060220 | 24 | 50 | 1.6 | 3.2 | 0.00 | 0.08 | 0.00 | 95 | 1009.2 |
| 20260504050518 | 25 | 64 | 3.2 | 6.4 | 0.00 | 0.10 | 0.00 | 95 | 1009.9 |
| 20260504045902 | 25 | 57 | 3.2 | 3.2 | 0.00 | 0.10 | 0.13 | 95 | 1009.7 |
| 20260504045516 | 25 | 104 | 3.2 | 8.0 | 0.00 | 0.10 | 0.13 | 94 | 1010.0 |
| 20260504044829 | 25 | 36 | 3.2 | 3.2 | 0.00 | 0.10 | 0.13 | 94 | 1009.7 |
| 20260504044534 | 25 | 107 | 3.2 | 8.0 | 0.00 | 0.10 | 0.13 | 94 | 1010.1 |
| 20260504043531 | 25 | 64 | 4.8 | 8.0 | 0.00 | 0.10 | 0.13 | 93 | 1010.1 |
| 20260504042549 | 25 | 26 | 4.8 | 8.0 | 0.00 | 0.10 | 0.13 | 93 | 1010.1 |
| 20260504041527 | 25 | 49 | 3.2 | 6.4 | 0.00 | 0.10 | 0.13 | 93 | 1010.0 |
| 20260504040617 | 25 | 82 | 3.2 | 4.8 | 0.00 | 0.10 | 0.13 | 94 | 1009.8 |
| 20260504040524 | 25 | 67 | 3.2 | 6.4 | 0.00 | 0.10 | 0.13 | 94 | 1010.0 |
| 20260504035544 | 25 | 0 | 0.0 | 1.6 | 0.00 | 0.10 | 0.13 | 94 | 1009.9 |
| 20260504035542 | 25 | 95 | 3.2 | 6.4 | 0.00 | 0.10 | 0.13 | 95 | 1010.2 |
| 20260504034744 | 25 | 74 | 3.2 | 4.8 | 0.00 | 0.10 | 0.13 | 95 | 1009.9 |
| 20260504034520 | 25 | 62 | 3.2 | 6.4 | 0.00 | 0.10 | 0.13 | 95 | 1010.1 |
| 20260504034344 | 25 | 57 | 3.2 | 3.2 | 0.00 | 0.10 | 0.13 | 95 | 1009.8 |
| 20260504034144 | 25 | 72 | 1.6 | 3.2 | 0.00 | 0.10 | 0.13 | 95 | 1009.9 |
| 20260504033544 | 25 | 51 | 3.2 | 3.2 | 0.00 | 0.10 | 0.13 | 95 | 1010.0 |
| 20260504033527 | 25 | 49 | 1.6 | 4.8 | 0.00 | 0.10 | 0.13 | 95 | 1010.2 |
| 20260504032525 | 25 | 29 | 1.6 | 6.4 | 0.00 | 0.10 | 0.13 | 95 | 1010.3 |
| 20260504032511 | 25 | 74 | 1.6 | 3.2 | 0.00 | 0.10 | 0.13 | 95 | 1009.9 |
| 20260504031522 | 25 | 229 | 1.6 | 4.8 | 0.00 | 0.10 | 0.13 | 95 | 1010.2 |
| 20260504031438 | 25 | 212 | 1.6 | 1.6 | 0.00 | 0.10 | 0.13 | 95 | 1010.0 |
| 20260504030519 | 25 | 134 | 1.6 | 4.8 | 0.00 | 0.10 | 0.13 | 95 | 1010.1 |
| 20260504030405 | 25 | 153 | 1.6 | 1.6 | 0.00 | 0.10 | 0.13 | 95 | 1009.8 |
| 20260504025332 | 25 | 46 | 3.2 | 3.2 | 0.00 | 0.10 | 0.13 | 95 | 1009.8 |
| 20260504024555 | 25 | 205 | 0.0 | 3.2 | 0.00 | 0.10 | 0.13 | 94 | 1010.1 |
| 20260504024259 | 25 | 283 | 1.6 | 1.6 | 0.00 | 0.10 | 0.13 | 94 | 1009.9 |
| 20260504023533 | 25 | 44 | 1.6 | 4.8 | 0.00 | 0.10 | 0.13 | 94 | 1010.0 |
| 20260504023225 | 25 | 37 | 1.6 | 3.2 | 0.00 | 0.10 | 0.13 | 94 | 1009.7 |
| 20260504022530 | 25 | 38 | 3.2 | 4.8 | 0.00 | 0.10 | 0.13 | 94 | 1010.0 |
| 20260504022152 | 25 | 11 | 3.2 | 3.2 | 0.00 | 0.10 | 0.13 | 93 | 1009.6 |
| 20260504021548 | 25 | 52 | 3.2 | 3.2 | 0.00 | 0.10 | 0.13 | 93 | 1009.7 |
| 20260504021120 | 25 | 52 | 3.2 | 3.2 | 0.00 | 0.10 | 0.13 | 93 | 1009.5 |
| 20260504020546 | 26 | 26 | 3.2 | 4.8 | 0.00 | 0.10 | 0.13 | 92 | 1009.7 |
| 20260504020047 | 25 | 37 | 1.6 | 1.6 | 0.00 | 0.10 | 0.13 | 92 | 1009.4 |
| 20260504015522 | 26 | 40 | 3.2 | 6.4 | 0.00 | 0.10 | 0.13 | 92 | 1009.6 |
| 20260504015014 | 25 | 86 | 3.2 | 3.2 | 0.00 | 0.10 | 0.13 | 92 | 1009.2 |
| 20260504014521 | 26 | 50 | 1.6 | 4.8 | 0.00 | 0.10 | 0.13 | 92 | 1009.5 |
| 20260504013941 | 25 | 32 | 1.6 | 3.2 | 0.00 | 0.10 | 0.13 | 92 | 1009.1 |
| 20260504013518 | 26 | 50 | 1.6 | 3.2 | 0.00 | 0.10 | 0.13 | 91 | 1009.5 |
| 20260504012908 | 25 | 30 | 1.6 | 3.2 | 0.00 | 0.10 | 0.13 | 92 | 1009.4 |
| 20260504012516 | 26 | 39 | 1.6 | 4.8 | 0.00 | 0.10 | 0.13 | 92 | 1009.4 |
| 20260504011835 | 26 | 325 | 1.6 | 3.2 | 0.00 | 0.10 | 0.13 | 92 | 1008.9 |
| 20260504011533 | 26 | 29 | 1.6 | 4.8 | 0.00 | 0.10 | 0.13 | 92 | 1009.4 |
| 20260504010802 | 26 | 354 | 1.6 | 3.2 | 0.00 | 0.10 | 0.13 | 92 | 1009.1 |
| 20260504010532 | 26 | 9 | 1.6 | 4.8 | 0.00 | 0.13 | 0.13 | 92 | 1009.3 |
| 20260504005729 | 26 | 0 | 0.0 | 3.2 | 0.00 | 0.10 | 0.13 | 92 | 1009.1 |
| 20260504005529 | 26 | 3 | 1.6 | 4.8 | 0.00 | 0.13 | 0.13 | 92 | 1009.4 |
| 20260504004656 | 26 | 360 | 3.2 | 3.2 | 0.00 | 0.10 | 0.13 | 93 | 1009.2 |
| 20260504004526 | 26 | 344 | 3.2 | 6.4 | 0.00 | 0.13 | 0.13 | 93 | 1009.5 |
| 20260504003623 | 26 | 146 | 1.6 | 4.8 | 0.00 | 0.10 | 0.13 | 93 | 1009.1 |
| 20260504003524 | 26 | 324 | 1.6 | 4.8 | 0.00 | 0.13 | 0.13 | 93 | 1009.5 |
| 20260504002550 | 26 | 0 | 0.0 | 1.6 | 0.00 | 0.10 | 0.13 | 92 | 1008.8 |
| 20260504002521 | 26 | 43 | 1.6 | 4.8 | 0.00 | 0.13 | 0.13 | 92 | 1009.4 |
| 20260504001519 | 26 | 328 | 3.2 | 4.8 | 0.00 | 0.13 | 0.13 | 92 | 1009.2 |
| 20260504001517 | 26 | 354 | 3.2 | 4.8 | 0.00 | 0.10 | 0.13 | 92 | 1008.8 |
| 20260504000617 | 26 | 303 | 3.2 | 4.8 | 0.00 | 0.13 | 0.13 | 92 | 1009.0 |
| 20260504000444 | 26 | 2 | 1.6 | 3.2 | 0.00 | 0.13 | 0.13 | 92 | 1008.7 |
| 20260503235535 | 26 | 322 | 3.2 | 6.4 | 0.00 | 0.13 | 0.13 | 92 | 1008.9 |
| 20260503235411 | 26 | 349 | 3.2 | 3.2 | 0.00 | 0.13 | 0.13 | 92 | 1008.8 |
| 20260503234532 | 26 | 274 | 4.8 | 8.0 | 0.00 | 0.15 | 0.13 | 91 | 1008.8 |
| 20260503234337 | 26 | 265 | 6.4 | 6.4 | 0.00 | 0.13 | 0.13 | 91 | 1008.4 |
| 20260503233530 | 26 | 354 | 3.2 | 4.8 | 0.00 | 0.15 | 0.13 | 91 | 1008.7 |
| 20260503233305 | 26 | 347 | 1.6 | 3.2 | 0.00 | 0.15 | 0.13 | 91 | 1008.3 |
| 20260503232528 | 26 | 342 | 4.8 | 6.4 | 0.00 | 0.15 | 0.13 | 91 | 1008.6 |
| 20260503232232 | 26 | 337 | 1.6 | 3.2 | 0.00 | 0.15 | 0.13 | 91 | 1008.4 |
| 20260503231525 | 26 | 3 | 3.2 | 6.4 | 0.00 | 0.18 | 0.13 | 91 | 1008.6 |
| 20260503230522 | 26 | 48 | 4.8 | 8.0 | 0.00 | 0.18 | 0.13 | 90 | 1008.4 |
| 20260503230125 | 26 | 50 | 4.8 | 4.8 | 0.00 | 0.20 | 0.13 | 90 | 1008.0 |
| 20260503225601 | 26 | 12 | 1.6 | 6.4 | 0.00 | 0.23 | 0.13 | 90 | 1008.2 |
| 20260503225052 | 26 | 14 | 3.2 | 6.4 | 0.00 | 0.25 | 0.13 | 89 | 1007.9 |
| 20260503224539 | 26 | 21 | 3.2 | 6.4 | 0.00 | 0.28 | 0.13 | 89 | 1008.2 |
| 20260503224020 | 26 | 20 | 1.6 | 4.8 | 0.00 | 0.30 | 0.13 | 89 | 1007.9 |
| 20260503223536 | 27 | 21 | 1.6 | 4.8 | 0.00 | 0.33 | 0.13 | 89 | 1008.2 |
| 20260503222947 | 26 | 290 | 1.6 | 3.2 | 0.00 | 0.41 | 0.13 | 89 | 1007.9 |
| 20260503222553 | 27 | 346 | 1.6 | 4.8 | 0.00 | 0.41 | 0.13 | 88 | 1008.4 |
| 20260503221914 | 26 | 337 | 1.6 | 4.8 | 0.00 | 0.51 | 0.13 | 88 | 1007.9 |
| 20260503221531 | 27 | 69 | 1.6 | 4.8 | 0.00 | 0.53 | 0.13 | 88 | 1008.3 |
| 20260503220548 | 27 | 48 | 3.2 | 6.4 | 0.00 | 0.64 | 0.13 | 88 | 1008.5 |
| 20260503215808 | 26 | 13 | 3.2 | 3.2 | 0.00 | 0.64 | 0.13 | 88 | 1008.2 |
| 20260503215526 | 27 | 340 | 4.8 | 6.4 | 0.00 | 0.66 | 0.13 | 88 | 1008.3 |
| 20260503214735 | 26 | 48 | 1.6 | 3.2 | 0.00 | 0.89 | 0.13 | 88 | 1007.6 |
| 20260503214524 | 27 | 33 | 3.2 | 6.4 | 0.00 | 0.89 | 0.13 | 88 | 1008.2 |
| 20260503213702 | 26 | 360 | 3.2 | 3.2 | 0.00 | 0.99 | 0.13 | 88 | 1007.9 |
| 20260503213542 | 26 | 18 | 4.8 | 8.0 | 0.00 | 1.02 | 0.13 | 88 | 1008.2 |
| 20260503212628 | 26 | 354 | 8.0 | 8.0 | 0.00 | 1.35 | 0.13 | 88 | 1007.8 |
| 20260503212519 | 27 | 318 | 4.8 | 9.7 | 0.00 | 1.37 | 0.13 | 88 | 1008.2 |
| 20260503211555 | 26 | 0 | 0.0 | 3.2 | 0.00 | 2.01 | 0.13 | 87 | 1007.8 |
| 20260503211516 | 27 | 29 | 1.6 | 4.8 | 0.00 | 1.88 | 0.13 | 88 | 1008.2 |
| 20260503210535 | 26 | 349 | 3.2 | 6.4 | 0.00 | 2.03 | 0.13 | 89 | 1008.3 |
| 20260503210522 | 26 | 292 | 1.6 | 4.8 | 0.00 | 2.01 | 0.13 | 88 | 1007.9 |
| 20260503205532 | 26 | 52 | 3.2 | 6.4 | 0.00 | 2.03 | 0.13 | 89 | 1008.3 |
| 20260503205449 | 26 | 154 | 1.6 | 3.2 | 0.00 | 2.01 | 0.13 | 89 | 1008.0 |
| 20260503204529 | 26 | 69 | 3.2 | 8.0 | 0.00 | 2.03 | 0.13 | 90 | 1008.5 |
| 20260503204417 | 26 | 62 | 1.6 | 6.4 | 0.00 | 2.21 | 0.13 | 89 | 1008.3 |
| 20260503203527 | 26 | 104 | 3.2 | 6.4 | 0.00 | 2.41 | 0.13 | 90 | 1008.6 |
| 20260503203344 | 26 | 40 | 1.6 | 4.8 | 0.00 | 2.69 | 0.13 | 90 | 1008.2 |
| 20260503202546 | 26 | 76 | 3.2 | 8.0 | 0.00 | 3.23 | 0.13 | 90 | 1008.7 |
| 20260503202311 | 26 | 0 | 0.0 | 3.2 | 0.00 | 4.09 | 0.13 | 90 | 1008.3 |
| 20260503201522 | 26 | 87 | 4.8 | 9.7 | 0.00 | 4.93 | 0.13 | 91 | 1008.7 |
| 20260503201238 | 26 | 98 | 3.2 | 4.8 | 0.00 | 5.94 | 0.13 | 91 | 1008.2 |
| 20260503200519 | 26 | 49 | 3.2 | 9.7 | 0.00 | 6.86 | 0.13 | 91 | 1008.4 |
| 20260503200204 | 26 | 48 | 3.2 | 4.8 | 0.00 | 6.99 | 0.13 | 91 | 1008.2 |
| 20260503195518 | 26 | 70 | 3.2 | 9.7 | 0.00 | 7.04 | 0.13 | 90 | 1008.7 |
| 20260503195131 | 26 | 34 | 3.2 | 9.7 | 0.00 | 7.04 | 0.13 | 90 | 1008.3 |
| 20260503194535 | 26 | 16 | 4.8 | 11.3 | 0.00 | 7.21 | 0.13 | 90 | 1008.6 |
| 20260503194059 | 26 | 347 | 6.4 | 8.0 | 0.00 | 7.29 | 0.13 | 90 | 1008.3 |
| 20260503193533 | 26 | 22 | 4.8 | 8.0 | 0.00 | 7.32 | 0.13 | 90 | 1008.7 |
| 20260503192530 | 26 | 50 | 3.2 | 9.7 | 0.00 | 7.32 | 0.13 | 91 | 1008.8 |
| 20260503191953 | 26 | 360 | 3.2 | 6.4 | 0.00 | 7.32 | 0.13 | 91 | 1008.5 |
| 20260503191528 | 26 | 45 | 4.8 | 9.7 | 0.03 | 7.34 | 0.13 | 90 | 1008.9 |
| 20260503190919 | 26 | 340 | 8.0 | 9.7 | 0.08 | 7.34 | 0.13 | 89 | 1008.6 |
| 20260503190525 | 26 | 40 | 3.2 | 8.0 | 0.10 | 7.37 | 0.13 | 89 | 1009.3 |
| 20260503185523 | 26 | 18 | 4.8 | 9.7 | 0.10 | 7.37 | 0.13 | 88 | 1009.6 |
| 20260503184813 | 26 | 4 | 1.6 | 3.2 | 0.08 | 7.34 | 0.10 | 88 | 1009.4 |
| 20260503184521 | 26 | 335 | 4.8 | 8.0 | 0.08 | 7.34 | 0.13 | 89 | 1009.8 |
| 20260503183741 | 25 | 7 | 3.2 | 3.2 | 0.08 | 7.34 | 0.10 | 88 | 1009.5 |
| 20260503183518 | 26 | 334 | 6.4 | 11.3 | 0.08 | 7.37 | 0.13 | 88 | 1010.0 |
| 20260503182536 | 26 | 356 | 3.2 | 9.7 | 0.08 | 7.39 | 0.13 | 87 | 1010.3 |
| 20260503181635 | 26 | 275 | 4.8 | 4.8 | 0.05 | 7.59 | 0.10 | 84 | 1010.0 |
| 20260503181534 | 27 | 36 | 8.0 | 16.1 | 0.08 | 7.62 | 0.10 | 84 | 1010.4 |
| 20260503180602 | 28 | 48 | 6.4 | 9.7 | 0.00 | 7.52 | 0.03 | 77 | 1010.0 |
| 20260503180531 | 30 | 71 | 12.9 | 24.1 | 0.00 | 7.54 | 0.05 | 76 | 1010.4 |
| 20260503175529 | 31 | 114 | 8.0 | 19.3 | 0.00 | 7.54 | 0.05 | 72 | 1010.2 |
| 20260503174527 | 31 | 177 | 6.4 | 12.9 | 0.00 | 7.54 | 0.05 | 70 | 1010.2 |
| 20260503173544 | 32 | 122 | 4.8 | 14.5 | 0.00 | 7.54 | 0.05 | 68 | 1010.0 |
| 20260503173422 | 32 | 103 | 6.4 | 9.7 | 0.00 | 7.52 | 0.03 | 68 | 1009.6 |
| 20260503172522 | 32 | 150 | 6.4 | 11.3 | 0.00 | 7.54 | 0.05 | 69 | 1010.1 |
| 20260503172349 | 31 | 167 | 8.0 | 9.7 | 0.00 | 7.52 | 0.03 | 69 | 1009.8 |
| 20260503171519 | 31 | 142 | 6.4 | 12.9 | 0.00 | 7.54 | 0.05 | 71 | 1010.2 |
| 20260503170517 | 31 | 170 | 8.0 | 14.5 | 0.00 | 7.54 | 0.05 | 73 | 1010.6 |
| 20260503150640 | 30 | 66 | 3.2 | 6.4 | 0.00 | 7.52 | 0.03 | 74 | 1010.7 |
| 20260503150528 | 30 | 101 | 3.2 | 9.7 | 0.00 | 7.54 | 0.05 | 75 | 1011.3 |